Time,TemperatureF,DewpointF,PressureIn,WindDirection,WindDirectionDegrees,WindSpeedMPH,WindSpeedGustMPH,Humidity,HourlyPrecipIn,Conditions,Clouds,dailyrainin,SoftwareType,DateUTC
2013-10-12 00:01:00,40.2,35.8,30.05,ESE,111,0.0,0.0,84,0.00,,,0.00,vanprod-2.5-rc3,2013-10-12 06:01:00,
2013-10-12 00:06:00,40.0,35.6,30.05,ESE,108,0.0,0.0,84,0.00,,,0.00,vanprod-2.5-rc3,2013-10-12 06:06:00,
2013-10-12 00:11:00,39.9,35.5,30.05,East,101,0.0,0.0,84,0.00,,,0.00,vanprod-2.5-rc3,2013-10-12 06:11:00,
2013-10-12 00:16:00,39.9,35.5,30.05,East,99,0.0,0.0,84,0.00,,,0.00,vanprod-2.5-rc3,2013-10-12 06:16:00,
2013-10-12 00:21:00,39.8,35.4,30.05,East,93,0.0,0.0,84,0.00,,,0.00,vanprod-2.5-rc3,2013-10-12 06:21:00,
2013-10-12 00:26:00,39.6,34.9,30.05,East,91,0.0,0.0,83,0.00,,,0.00,vanprod-2.5-rc3,2013-10-12 06:26:00,
2013-10-12 00:31:00,39.2,34.8,30.06,East,94,0.0,0.0,84,0.00,,,0.00,vanprod-2.5-rc3,2013-10-12 06:31:00,
2013-10-12 00:36:00,39.1,34.7,30.06,ESE,105,0.0,0.0,84,0.00,,,0.00,vanprod-2.5-rc3,2013-10-12 06:36:00,
2013-10-12 00:41:00,39.3,35.2,30.06,East,98,0.0,0.0,85,0.00,,,0.00,vanprod-2.5-rc3,2013-10-12 06:41:00,
2013-10-12 00:46:00,39.4,35.0,30.06,East,98,0.0,0.0,84,0.00,,,0.00,vanprod-2.5-rc3,2013-10-12 06:46:00,
2013-10-12 00:51:00,39.4,35.0,30.06,ESE,115,0.0,0.0,84,0.00,,,0.00,vanprod-2.5-rc3,2013-10-12 06:51:00,
2013-10-12 00:56:00,39.4,35.0,30.06,ESE,113,0.0,0.0,84,0.00,,,0.00,vanprod-2.5-rc3,2013-10-12 06:56:00,
2013-10-12 01:01:00,39.1,34.4,30.05,ESE,111,0.0,0.0,83,0.00,,,0.00,vanprod-2.5-rc3,2013-10-12 07:01:00,
2013-10-12 01:06:00,38.6,33.6,30.05,ESE,108,0.0,0.0,82,0.00,,,0.00,vanprod-2.5-rc3,2013-10-12 07:06:00,
2013-10-12 01:11:00,38.2,33.8,30.05,ESE,119,0.0,0.0,84,0.00,,,0.00,vanprod-2.5-rc3,2013-10-12 07:11:00,
2013-10-12 01:16:00,38.2,34.1,30.05,ESE,116,0.0,0.0,85,0.00,,,0.00,vanprod-2.5-rc3,2013-10-12 07:16:00,
2013-10-12 01:21:00,38.2,34.1,30.05,ESE,112,0.0,0.0,85,0.00,,,0.00,vanprod-2.5-rc3,2013-10-12 07:21:00,
2013-10-12 01:26:00,38.0,33.6,30.05,ESE,113,0.0,0.0,84,0.00,,,0.00,vanprod-2.5-rc3,2013-10-12 07:26:00,
2013-10-12 01:31:00,38.0,33.9,30.05,ESE,113,0.0,0.0,85,0.00,,,0.00,vanprod-2.5-rc3,2013-10-12 07:31:00,
2013-10-12 01:36:00,38.0,33.6,30.05,ESE,117,0.0,0.0,84,0.00,,,0.00,vanprod-2.5-rc3,2013-10-12 07:36:00,
2013-10-12 01:41:00,38.1,33.7,30.05,ESE,118,0.0,0.0,84,0.00,,,0.00,vanprod-2.5-rc3,2013-10-12 07:41:00,
2013-10-12 01:46:00,38.0,33.3,30.05,ESE,111,0.0,0.0,83,0.00,,,0.00,vanprod-2.5-rc3,2013-10-12 07:46:00,
2013-10-12 01:51:00,37.6,32.6,30.06,ESE,108,0.0,0.0,82,0.00,,,0.00,vanprod-2.5-rc3,2013-10-12 07:51:00,
2013-10-12 01:56:00,37.3,32.6,30.07,ESE,108,0.0,0.0,83,0.00,,,0.00,vanprod-2.5-rc3,2013-10-12 07:56:00,
2013-10-12 02:01:00,37.2,32.8,30.06,ESE,108,0.0,0.0,84,0.00,,,0.00,vanprod-2.5-rc3,2013-10-12 08:01:00,
2013-10-12 02:06:00,37.0,32.6,30.06,ESE,109,0.0,0.0,84,0.00,,,0.00,vanprod-2.5-rc3,2013-10-12 08:06:00,
2013-10-12 02:11:00,37.0,32.9,30.06,ESE,109,0.0,0.0,85,0.00,,,0.00,vanprod-2.5-rc3,2013-10-12 08:11:00,
2013-10-12 02:16:00,37.0,32.9,30.06,ESE,106,0.0,0.0,85,0.00,,,0.00,vanprod-2.5-rc3,2013-10-12 08:16:00,
2013-10-12 02:21:00,36.7,32.0,30.06,ESE,102,0.0,0.0,83,0.00,,,0.00,vanprod-2.5-rc3,2013-10-12 08:21:00,
2013-10-12 02:26:00,36.5,32.1,30.06,ESE,103,0.0,0.0,84,0.00,,,0.00,vanprod-2.5-rc3,2013-10-12 08:26:00,
2013-10-12 02:31:00,36.7,32.6,30.06,ESE,102,0.0,0.0,85,0.00,,,0.00,vanprod-2.5-rc3,2013-10-12 08:31:00,
2013-10-12 02:36:00,36.6,32.2,30.06,East,80,0.0,0.0,84,0.00,,,0.00,vanprod-2.5-rc3,2013-10-12 08:36:00,
2013-10-12 02:41:00,36.3,31.9,30.06,East,98,0.0,0.0,84,0.00,,,0.00,vanprod-2.5-rc3,2013-10-12 08:41:00,
2013-10-12 02:46:00,36.0,31.6,30.06,East,92,0.0,0.0,84,0.00,,,0.00,vanprod-2.5-rc3,2013-10-12 08:46:00,
2013-10-12 02:51:00,36.0,31.6,30.06,ESE,109,0.0,0.0,84,0.00,,,0.00,vanprod-2.5-rc3,2013-10-12 08:51:00,
2013-10-12 02:56:00,36.3,32.2,30.06,ESE,117,0.0,0.0,85,0.00,,,0.00,vanprod-2.5-rc3,2013-10-12 08:56:00,
2013-10-12 03:01:00,36.6,32.5,30.06,ESE,117,0.0,0.0,85,0.00,,,0.00,vanprod-2.5-rc3,2013-10-12 09:01:00,
2013-10-12 03:06:00,36.7,32.6,30.06,ESE,116,0.0,0.0,85,0.00,,,0.00,vanprod-2.5-rc3,2013-10-12 09:06:00,
2013-10-12 03:11:00,36.6,32.5,30.06,ESE,117,0.0,0.0,85,0.00,,,0.00,vanprod-2.5-rc3,2013-10-12 09:11:00,
2013-10-12 03:16:00,36.2,31.8,30.08,ESE,116,0.0,0.0,84,0.00,,,0.00,vanprod-2.5-rc3,2013-10-12 09:16:00,
2013-10-12 03:21:00,35.7,31.3,30.05,ESE,113,0.0,0.0,84,0.00,,,0.00,vanprod-2.5-rc3,2013-10-12 09:21:00,
2013-10-12 03:26:00,35.2,30.9,30.05,East,100,0.0,0.0,84,0.00,,,0.00,vanprod-2.5-rc3,2013-10-12 09:26:00,
2013-10-12 03:31:00,35.0,31.0,30.05,ESE,102,0.0,0.0,85,0.00,,,0.00,vanprod-2.5-rc3,2013-10-12 09:31:00,
2013-10-12 03:36:00,35.3,31.8,30.07,ESE,107,0.0,0.0,87,0.00,,,0.00,vanprod-2.5-rc3,2013-10-12 09:36:00,
2013-10-12 03:41:00,35.6,32.1,30.07,ESE,109,0.0,0.0,87,0.00,,,0.00,vanprod-2.5-rc3,2013-10-12 09:41:00,
2013-10-12 03:46:00,35.5,32.0,30.07,ESE,107,0.0,0.0,87,0.00,,,0.00,vanprod-2.5-rc3,2013-10-12 09:46:00,
2013-10-12 03:51:00,35.2,31.4,30.05,ESE,103,0.0,0.0,86,0.00,,,0.00,vanprod-2.5-rc3,2013-10-12 09:51:00,
2013-10-12 03:56:00,34.7,30.9,30.05,East,88,0.0,0.0,86,0.00,,,0.00,vanprod-2.5-rc3,2013-10-12 09:56:00,
2013-10-12 04:01:00,34.4,30.7,30.05,East,84,0.0,0.0,86,0.00,,,0.00,vanprod-2.5-rc3,2013-10-12 10:01:00,
2013-10-12 04:06:00,34.4,30.9,30.05,East,89,0.0,0.0,87,0.00,,,0.00,vanprod-2.5-rc3,2013-10-12 10:06:00,
2013-10-12 04:11:00,34.4,31.2,30.04,East,80,0.0,0.0,88,0.00,,,0.00,vanprod-2.5-rc3,2013-10-12 10:11:00,
2013-10-12 04:16:00,34.5,31.3,30.04,East,80,0.0,0.0,88,0.00,,,0.00,vanprod-2.5-rc3,2013-10-12 10:16:00,
2013-10-12 04:21:00,34.4,31.2,30.05,East,87,0.0,0.0,88,0.00,,,0.00,vanprod-2.5-rc3,2013-10-12 10:21:00,
2013-10-12 04:26:00,34.4,31.5,30.07,East,96,0.0,0.0,89,0.00,,,0.00,vanprod-2.5-rc3,2013-10-12 10:26:00,
2013-10-12 04:31:00,34.7,31.8,30.07,East,100,0.0,0.0,89,0.00,,,0.00,vanprod-2.5-rc3,2013-10-12 10:31:00,
2013-10-12 04:36:00,34.9,32.0,30.07,East,100,0.0,0.0,89,0.00,,,0.00,vanprod-2.5-rc3,2013-10-12 10:36:00,
2013-10-12 04:41:00,34.7,31.8,30.07,East,96,0.0,0.0,89,0.00,,,0.00,vanprod-2.5-rc3,2013-10-12 10:41:00,
2013-10-12 04:46:00,34.4,31.2,30.05,East,94,0.0,0.0,88,0.00,,,0.00,vanprod-2.5-rc3,2013-10-12 10:46:00,
2013-10-12 04:51:00,34.0,30.8,30.05,East,94,0.0,0.0,88,0.00,,,0.00,vanprod-2.5-rc3,2013-10-12 10:51:00,
2013-10-12 04:56:00,33.6,30.4,30.05,East,94,0.0,0.0,88,0.00,,,0.00,vanprod-2.5-rc3,2013-10-12 10:56:00,
2013-10-12 05:01:00,33.4,30.2,30.06,East,93,0.0,0.0,88,0.00,,,0.00,vanprod-2.5-rc3,2013-10-12 11:01:00,
2013-10-12 05:06:00,33.0,29.8,30.07,East,93,0.0,0.0,88,0.00,,,0.00,vanprod-2.5-rc3,2013-10-12 11:06:00,
2013-10-12 05:11:00,32.9,29.7,30.07,East,93,0.0,0.0,88,0.00,,,0.00,vanprod-2.5-rc3,2013-10-12 11:11:00,
2013-10-12 05:16:00,32.8,29.9,30.07,East,93,0.0,0.0,89,0.00,,,0.00,vanprod-2.5-rc3,2013-10-12 11:16:00,
2013-10-12 05:21:00,32.8,29.9,30.07,East,92,0.0,0.0,89,0.00,,,0.00,vanprod-2.5-rc3,2013-10-12 11:21:00,
2013-10-12 05:26:00,32.8,29.9,30.07,East,92,0.0,0.0,89,0.00,,,0.00,vanprod-2.5-rc3,2013-10-12 11:26:00,
2013-10-12 05:31:00,32.7,29.8,30.07,East,93,0.0,0.0,89,0.00,,,0.00,vanprod-2.5-rc3,2013-10-12 11:31:00,
2013-10-12 05:36:00,33.1,30.5,30.07,East,95,0.0,0.0,90,0.00,,,0.00,vanprod-2.5-rc3,2013-10-12 11:36:00,
2013-10-12 05:41:00,33.3,30.7,30.07,ESE,109,0.0,0.0,90,0.00,,,0.00,vanprod-2.5-rc3,2013-10-12 11:41:00,
2013-10-12 05:46:00,33.2,30.3,30.07,ESE,109,0.0,0.0,89,0.00,,,0.00,vanprod-2.5-rc3,2013-10-12 11:46:00,
2013-10-12 05:51:00,32.9,30.0,30.08,ESE,105,0.0,0.0,89,0.00,,,0.00,vanprod-2.5-rc3,2013-10-12 11:51:00,
2013-10-12 05:56:00,32.7,29.8,30.08,ESE,104,0.0,0.0,89,0.00,,,0.00,vanprod-2.5-rc3,2013-10-12 11:56:00,
2013-10-12 06:01:00,32.8,30.2,30.07,East,101,0.0,0.0,90,0.00,,,0.00,vanprod-2.5-rc3,2013-10-12 12:01:00,
2013-10-12 06:06:00,32.9,30.3,30.07,East,99,0.0,0.0,90,0.00,,,0.00,vanprod-2.5-rc3,2013-10-12 12:06:00,
2013-10-12 06:11:00,32.9,30.3,30.07,ESE,103,0.0,0.0,90,0.00,,,0.00,vanprod-2.5-rc3,2013-10-12 12:11:00,
2013-10-12 06:16:00,33.1,30.5,30.07,ESE,105,0.0,0.0,90,0.00,,,0.00,vanprod-2.5-rc3,2013-10-12 12:16:00,
2013-10-12 06:21:00,33.3,30.7,30.07,ESE,105,0.0,0.0,90,0.00,,,0.00,vanprod-2.5-rc3,2013-10-12 12:21:00,
2013-10-12 06:26:00,33.3,30.7,30.07,ESE,105,0.0,0.0,90,0.00,,,0.00,vanprod-2.5-rc3,2013-10-12 12:26:00,
2013-10-12 06:31:00,33.3,30.7,30.07,ESE,105,0.0,0.0,90,0.00,,,0.00,vanprod-2.5-rc3,2013-10-12 12:31:00,
2013-10-12 06:36:00,33.0,30.4,30.07,ESE,103,0.0,0.0,90,0.00,,,0.00,vanprod-2.5-rc3,2013-10-12 12:36:00,
2013-10-12 06:41:00,32.8,30.2,30.07,East,101,0.0,0.0,90,0.00,,,0.00,vanprod-2.5-rc3,2013-10-12 12:41:00,
2013-10-12 06:46:00,32.8,30.2,30.07,East,92,0.0,0.0,90,0.00,,,0.00,vanprod-2.5-rc3,2013-10-12 12:46:00,
2013-10-12 06:51:00,33.1,30.5,30.07,East,99,0.0,0.0,90,0.00,,,0.00,vanprod-2.5-rc3,2013-10-12 12:51:00,
2013-10-12 06:56:00,33.1,30.5,30.08,East,100,0.0,0.0,90,0.00,,,0.00,vanprod-2.5-rc3,2013-10-12 12:56:00,
2013-10-12 07:01:00,33.2,30.6,30.08,East,101,0.0,0.0,90,0.00,,,0.00,vanprod-2.5-rc3,2013-10-12 13:01:00,
2013-10-12 07:06:00,33.1,30.2,30.08,ESE,103,0.0,0.0,89,0.00,,,0.00,vanprod-2.5-rc3,2013-10-12 13:06:00,
2013-10-12 07:11:00,32.9,30.0,30.08,ESE,103,0.0,0.0,89,0.00,,,0.00,vanprod-2.5-rc3,2013-10-12 13:11:00,
2013-10-12 07:16:00,32.8,29.9,30.08,ESE,103,0.0,0.0,89,0.00,,,0.00,vanprod-2.5-rc3,2013-10-12 13:16:00,
2013-10-12 07:21:00,32.7,29.8,30.08,ESE,103,0.0,0.0,89,0.00,,,0.00,vanprod-2.5-rc3,2013-10-12 13:21:00,
2013-10-12 07:26:00,32.7,30.1,30.08,ESE,103,0.0,0.0,90,0.00,,,0.00,vanprod-2.5-rc3,2013-10-12 13:26:00,
2013-10-12 07:31:00,32.9,30.3,30.08,ESE,103,0.0,0.0,90,0.00,,,0.00,vanprod-2.5-rc3,2013-10-12 13:31:00,
2013-10-12 07:36:00,33.3,30.7,30.08,ESE,103,0.0,0.0,90,0.00,,,0.00,vanprod-2.5-rc3,2013-10-12 13:36:00,
2013-10-12 07:41:00,33.5,30.9,30.09,ESE,103,0.0,0.0,90,0.00,,,0.00,vanprod-2.5-rc3,2013-10-12 13:41:00,
2013-10-12 07:46:00,33.8,31.5,30.09,ENE,57,0.0,0.0,91,0.00,,,0.00,vanprod-2.5-rc3,2013-10-12 13:46:00,
2013-10-12 07:51:00,34.4,32.1,30.09,ENE,73,0.0,0.0,91,0.00,,,0.00,vanprod-2.5-rc3,2013-10-12 13:51:00,
2013-10-12 07:56:00,34.4,32.1,30.10,ENE,76,0.0,0.0,91,0.01,,,0.01,vanprod-2.5-rc3,2013-10-12 13:56:00,
2013-10-12 08:01:00,34.7,32.3,30.10,East,87,0.0,0.0,91,0.01,,,0.01,vanprod-2.5-rc3,2013-10-12 14:01:00,
2013-10-12 08:06:00,34.9,32.5,30.10,East,94,0.0,0.0,91,0.01,,,0.01,vanprod-2.5-rc3,2013-10-12 14:06:00,
2013-10-12 08:11:00,35.1,32.7,30.10,East,94,0.0,0.0,91,0.01,,,0.01,vanprod-2.5-rc3,2013-10-12 14:11:00,
2013-10-12 08:16:00,35.1,32.5,30.10,East,94,0.0,0.0,90,0.01,,,0.01,vanprod-2.5-rc3,2013-10-12 14:16:00,
2013-10-12 08:21:00,35.1,32.5,30.10,East,79,0.0,0.0,90,0.01,,,0.01,vanprod-2.5-rc3,2013-10-12 14:21:00,
2013-10-12 08:26:00,35.4,32.8,30.11,East,83,0.0,0.0,90,0.01,,,0.01,vanprod-2.5-rc3,2013-10-12 14:26:00,
2013-10-12 08:31:00,35.9,33.5,30.12,East,94,0.0,0.0,91,0.01,,,0.01,vanprod-2.5-rc3,2013-10-12 14:31:00,
2013-10-12 08:36:00,36.4,34.0,30.12,ENE,73,0.0,0.0,91,0.01,,,0.01,vanprod-2.5-rc3,2013-10-12 14:36:00,
2013-10-12 08:41:00,36.8,34.1,30.12,East,79,0.0,0.0,90,0.01,,,0.01,vanprod-2.5-rc3,2013-10-12 14:41:00,
2013-10-12 08:46:00,37.1,34.4,30.13,ENE,71,0.0,0.0,90,0.01,,,0.01,vanprod-2.5-rc3,2013-10-12 14:46:00,
2013-10-12 08:51:00,37.5,34.6,30.12,ENE,71,0.0,0.0,89,0.01,,,0.01,vanprod-2.5-rc3,2013-10-12 14:51:00,
2013-10-12 08:56:00,37.6,34.7,30.12,ENE,70,0.0,0.0,89,0.00,,,0.01,vanprod-2.5-rc3,2013-10-12 14:56:00,
2013-10-12 09:01:00,37.7,34.5,30.13,NE,50,0.0,0.0,88,0.00,,,0.01,vanprod-2.5-rc3,2013-10-12 15:01:00,
2013-10-12 09:06:00,37.9,34.7,30.12,ENE,59,0.0,0.0,88,0.00,,,0.01,vanprod-2.5-rc3,2013-10-12 15:06:00,
2013-10-12 09:11:00,38.1,34.9,30.13,ENE,59,0.0,0.0,88,0.00,,,0.01,vanprod-2.5-rc3,2013-10-12 15:11:00,
2013-10-12 09:16:00,38.5,35.3,30.12,ENE,73,0.0,0.0,88,0.00,,,0.01,vanprod-2.5-rc3,2013-10-12 15:16:00,
2013-10-12 09:21:00,38.9,35.7,30.11,ENE,68,1.0,0.0,88,0.00,,,0.01,vanprod-2.5-rc3,2013-10-12 15:21:00,
2013-10-12 09:26:00,39.3,36.0,30.12,ENE,76,0.0,0.0,88,0.00,,,0.01,vanprod-2.5-rc3,2013-10-12 15:26:00,
2013-10-12 09:31:00,39.6,36.1,30.11,ENE,72,0.0,0.0,87,0.00,,,0.01,vanprod-2.5-rc3,2013-10-12 15:31:00,
2013-10-12 09:36:00,40.0,36.2,30.11,ENE,74,0.0,0.0,86,0.00,,,0.01,vanprod-2.5-rc3,2013-10-12 15:36:00,
2013-10-12 09:41:00,40.4,36.3,30.11,ENE,77,0.0,1.0,85,0.00,,,0.01,vanprod-2.5-rc3,2013-10-12 15:41:00,
2013-10-12 09:46:00,40.9,36.7,30.12,ENE,73,0.0,1.0,85,0.00,,,0.01,vanprod-2.5-rc3,2013-10-12 15:46:00,
2013-10-12 09:51:00,41.3,36.8,30.12,ENE,64,0.0,1.0,84,0.00,,,0.01,vanprod-2.5-rc3,2013-10-12 15:51:00,
2013-10-12 09:56:00,41.7,36.6,30.12,ENE,65,1.0,2.0,82,0.00,,,0.01,vanprod-2.5-rc3,2013-10-12 15:56:00,
2013-10-12 10:01:00,42.2,36.5,30.12,ENE,59,1.0,0.0,80,0.00,,,0.01,vanprod-2.5-rc3,2013-10-12 16:01:00,
2013-10-12 10:06:00,42.5,36.5,30.11,ENE,71,2.0,2.0,79,0.00,,,0.01,vanprod-2.5-rc3,2013-10-12 16:06:00,
2013-10-12 10:11:00,42.9,36.5,30.11,ENE,76,3.0,3.0,78,0.00,,,0.01,vanprod-2.5-rc3,2013-10-12 16:11:00,
2013-10-12 10:16:00,43.5,37.1,30.10,ENE,75,2.0,0.0,78,0.00,,,0.01,vanprod-2.5-rc3,2013-10-12 16:16:00,
2013-10-12 10:21:00,44.1,37.4,30.10,ENE,75,3.0,3.0,77,0.00,,,0.01,vanprod-2.5-rc3,2013-10-12 16:21:00,
2013-10-12 10:26:00,44.7,37.6,30.11,ENE,77,2.0,2.0,76,0.00,,,0.01,vanprod-2.5-rc3,2013-10-12 16:26:00,
2013-10-12 10:31:00,45.0,36.9,30.11,ENE,61,1.0,2.0,73,0.00,,,0.01,vanprod-2.5-rc3,2013-10-12 16:31:00,
2013-10-12 10:36:00,45.2,36.0,30.11,ENE,64,3.0,4.0,70,0.00,,,0.01,vanprod-2.5-rc3,2013-10-12 16:36:00,
2013-10-12 10:41:00,45.5,35.6,30.11,ENE,58,3.0,4.0,68,0.00,,,0.01,vanprod-2.5-rc3,2013-10-12 16:41:00,
2013-10-12 10:46:00,45.7,35.8,30.11,NE,47,2.0,2.0,68,0.00,,,0.01,vanprod-2.5-rc3,2013-10-12 16:46:00,
2013-10-12 10:51:00,46.1,36.5,30.11,ENE,71,1.0,2.0,69,0.00,,,0.01,vanprod-2.5-rc3,2013-10-12 16:51:00,
2013-10-12 10:56:00,46.8,36.4,30.09,ENE,58,6.0,9.0,67,0.00,,,0.01,vanprod-2.5-rc3,2013-10-12 16:56:00,
2013-10-12 11:01:00,47.2,36.8,30.10,NE,53,5.0,7.0,67,0.00,,,0.01,vanprod-2.5-rc3,2013-10-12 17:01:00,
2013-10-12 11:06:00,47.7,36.5,30.09,NE,37,5.0,5.0,65,0.00,,,0.01,vanprod-2.5-rc3,2013-10-12 17:06:00,
2013-10-12 11:11:00,47.9,37.1,30.09,NE,55,3.0,3.0,66,0.00,,,0.01,vanprod-2.5-rc3,2013-10-12 17:11:00,
2013-10-12 11:16:00,48.3,36.7,30.08,NE,40,2.0,4.0,64,0.00,,,0.01,vanprod-2.5-rc3,2013-10-12 17:16:00,
2013-10-12 11:21:00,48.6,35.8,30.09,NE,49,3.0,3.0,61,0.00,,,0.01,vanprod-2.5-rc3,2013-10-12 17:21:00,
2013-10-12 11:26:00,48.8,36.4,30.09,NE,36,3.0,3.0,62,0.00,,,0.01,vanprod-2.5-rc3,2013-10-12 17:26:00,
2013-10-12 11:31:00,48.8,36.8,30.08,ENE,65,2.0,0.0,63,0.00,,,0.01,vanprod-2.5-rc3,2013-10-12 17:31:00,
2013-10-12 11:36:00,49.0,36.6,30.08,NE,45,3.0,6.0,62,0.00,,,0.01,vanprod-2.5-rc3,2013-10-12 17:36:00,
2013-10-12 11:41:00,49.2,36.8,30.08,NE,51,0.0,6.0,62,0.00,,,0.01,vanprod-2.5-rc3,2013-10-12 17:41:00,
2013-10-12 11:46:00,49.9,37.8,30.09,NE,34,4.0,0.0,63,0.00,,,0.01,vanprod-2.5-rc3,2013-10-12 17:46:00,
2013-10-12 11:51:00,50.7,37.8,30.09,NE,36,0.0,0.0,61,0.00,,,0.01,vanprod-2.5-rc3,2013-10-12 17:51:00,
2013-10-12 11:56:00,51.5,38.9,30.08,NNE,24,0.0,0.0,62,0.00,,,0.01,vanprod-2.5-rc3,2013-10-12 17:56:00,
2013-10-12 12:01:00,52.6,39.5,30.08,East,90,2.0,3.0,61,0.00,,,0.01,vanprod-2.5-rc3,2013-10-12 18:01:00,
2013-10-12 12:06:00,53.5,37.7,30.07,ENE,73,2.0,5.0,55,0.00,,,0.01,vanprod-2.5-rc3,2013-10-12 18:06:00,
2013-10-12 12:11:00,53.4,37.7,30.07,NE,46,1.0,0.0,55,0.00,,,0.01,vanprod-2.5-rc3,2013-10-12 18:11:00,
2013-10-12 12:16:00,53.3,37.1,30.07,NNE,23,1.0,5.0,54,0.00,,,0.01,vanprod-2.5-rc3,2013-10-12 18:16:00,
2013-10-12 12:21:00,52.7,36.5,30.07,NNE,24,1.0,0.0,54,0.00,,,0.01,vanprod-2.5-rc3,2013-10-12 18:21:00,
2013-10-12 12:26:00,52.1,35.5,30.08,NE,42,2.0,3.0,53,0.00,,,0.01,vanprod-2.5-rc3,2013-10-12 18:26:00,
2013-10-12 12:31:00,52.2,37.0,30.07,ENE,77,0.0,0.0,56,0.00,,,0.01,vanprod-2.5-rc3,2013-10-12 18:31:00,
2013-10-12 12:36:00,52.4,38.1,30.07,ENE,74,0.0,0.0,58,0.00,,,0.01,vanprod-2.5-rc3,2013-10-12 18:36:00,
2013-10-12 12:41:00,52.8,38.9,30.06,East,99,0.0,0.0,59,0.00,,,0.01,vanprod-2.5-rc3,2013-10-12 18:41:00,
2013-10-12 12:46:00,53.5,39.1,30.05,ENE,69,0.0,0.0,58,0.00,,,0.01,vanprod-2.5-rc3,2013-10-12 18:46:00,
2013-10-12 12:51:00,54.2,39.3,30.05,East,83,0.0,0.0,57,0.00,,,0.01,vanprod-2.5-rc3,2013-10-12 18:51:00,
2013-10-12 12:56:00,54.6,38.3,30.06,NE,44,2.0,0.0,54,0.00,,,0.01,vanprod-2.5-rc3,2013-10-12 18:56:00,
2013-10-12 13:01:00,54.7,38.4,30.05,NE,45,0.0,0.0,54,0.00,,,0.01,vanprod-2.5-rc3,2013-10-12 19:01:00,
2013-10-12 13:06:00,54.8,37.5,30.04,NE,44,0.0,0.0,52,0.00,,,0.01,vanprod-2.5-rc3,2013-10-12 19:06:00,
2013-10-12 13:11:00,54.6,38.3,30.04,ENE,65,0.0,0.0,54,0.00,,,0.01,vanprod-2.5-rc3,2013-10-12 19:11:00,
2013-10-12 13:16:00,54.9,37.6,30.03,NNE,30,0.0,0.0,52,0.00,,,0.01,vanprod-2.5-rc3,2013-10-12 19:16:00,
2013-10-12 13:21:00,55.0,40.1,30.03,ENE,64,1.0,0.0,57,0.00,,,0.01,vanprod-2.5-rc3,2013-10-12 19:21:00,
2013-10-12 13:26:00,55.6,39.7,30.03,ENE,73,0.0,0.0,55,0.00,,,0.01,vanprod-2.5-rc3,2013-10-12 19:26:00,
2013-10-12 13:31:00,56.1,39.2,30.03,ENE,76,0.0,0.0,53,0.00,,,0.01,vanprod-2.5-rc3,2013-10-12 19:31:00,
2013-10-12 13:36:00,56.5,39.1,30.04,SE,139,0.0,0.0,52,0.00,,,0.01,vanprod-2.5-rc3,2013-10-12 19:36:00,
2013-10-12 13:41:00,56.9,38.5,30.04,East,88,0.0,0.0,50,0.00,,,0.01,vanprod-2.5-rc3,2013-10-12 19:41:00,
2013-10-12 13:46:00,57.0,38.0,30.04,SE,142,0.0,0.0,49,0.00,,,0.01,vanprod-2.5-rc3,2013-10-12 19:46:00,
2013-10-12 13:51:00,56.9,36.9,30.04,SE,142,1.0,0.0,47,0.00,,,0.01,vanprod-2.5-rc3,2013-10-12 19:51:00,
2013-10-12 13:56:00,57.2,37.7,30.03,ENE,69,0.0,0.0,48,0.00,,,0.01,vanprod-2.5-rc3,2013-10-12 19:56:00,
2013-10-12 14:01:00,57.3,34.4,30.03,NE,34,0.0,0.0,42,0.00,,,0.01,vanprod-2.5-rc3,2013-10-12 20:01:00,
2013-10-12 14:06:00,57.1,33.6,30.02,NNW,348,0.0,0.0,41,0.00,,,0.01,vanprod-2.5-rc3,2013-10-12 20:06:00,
2013-10-12 14:11:00,56.5,33.7,30.02,WNW,303,0.0,0.0,42,0.00,,,0.01,vanprod-2.5-rc3,2013-10-12 20:11:00,
2013-10-12 14:16:00,56.2,34.0,30.01,WNW,298,0.0,0.0,43,0.00,,,0.01,vanprod-2.5-rc3,2013-10-12 20:16:00,
2013-10-12 14:21:00,56.6,35.0,30.02,WNW,299,0.0,0.0,44,0.00,,,0.01,vanprod-2.5-rc3,2013-10-12 20:21:00,
2013-10-12 14:26:00,57.1,34.8,30.02,WSW,250,0.0,0.0,43,0.00,,,0.01,vanprod-2.5-rc3,2013-10-12 20:26:00,
2013-10-12 14:31:00,57.4,35.1,30.02,West,276,2.0,2.0,43,0.00,,,0.01,vanprod-2.5-rc3,2013-10-12 20:31:00,
2013-10-12 14:36:00,57.3,34.4,30.02,WNW,294,0.0,0.0,42,0.00,,,0.01,vanprod-2.5-rc3,2013-10-12 20:36:00,
2013-10-12 14:41:00,57.0,35.3,30.02,West,277,0.0,3.0,44,0.00,,,0.01,vanprod-2.5-rc3,2013-10-12 20:41:00,
2013-10-12 14:46:00,56.7,33.3,30.02,West,266,0.0,0.0,41,0.00,,,0.01,vanprod-2.5-rc3,2013-10-12 20:46:00,
2013-10-12 14:51:00,56.2,34.0,30.00,WSW,239,0.0,0.0,43,0.00,,,0.01,vanprod-2.5-rc3,2013-10-12 20:51:00,
2013-10-12 14:56:00,55.9,34.3,30.00,SW,221,0.0,0.0,44,0.00,,,0.01,vanprod-2.5-rc3,2013-10-12 20:56:00,
2013-10-12 15:01:00,55.9,34.9,30.01,SW,221,0.0,0.0,45,0.00,,,0.01,vanprod-2.5-rc3,2013-10-12 21:01:00,
2013-10-12 15:06:00,55.7,34.1,30.01,SW,220,0.0,0.0,44,0.00,,,0.01,vanprod-2.5-rc3,2013-10-12 21:06:00,
2013-10-12 15:11:00,55.7,34.7,30.01,South,171,0.0,0.0,45,0.00,,,0.01,vanprod-2.5-rc3,2013-10-12 21:11:00,
2013-10-12 15:16:00,56.2,35.7,30.01,SSE,163,0.0,0.0,46,0.00,,,0.01,vanprod-2.5-rc3,2013-10-12 21:16:00,
2013-10-12 15:21:00,57.0,37.0,30.00,SE,142,0.0,0.0,47,0.00,,,0.01,vanprod-2.5-rc3,2013-10-12 21:21:00,
2013-10-12 15:26:00,57.8,34.9,30.00,South,180,1.0,2.0,42,0.00,,,0.01,vanprod-2.5-rc3,2013-10-12 21:26:00,
2013-10-12 15:31:00,58.2,35.2,30.00,SW,233,0.0,0.0,42,0.00,,,0.01,vanprod-2.5-rc3,2013-10-12 21:31:00,
2013-10-12 15:36:00,58.0,33.8,30.00,SW,235,0.0,0.0,40,0.00,,,0.01,vanprod-2.5-rc3,2013-10-12 21:36:00,
2013-10-12 15:41:00,58.0,33.2,29.99,SW,221,0.0,0.0,39,0.00,,,0.01,vanprod-2.5-rc3,2013-10-12 21:41:00,
2013-10-12 15:46:00,57.6,32.8,29.99,West,281,0.0,0.0,39,0.00,,,0.01,vanprod-2.5-rc3,2013-10-12 21:46:00,
2013-10-12 15:51:00,57.2,34.9,30.00,WSW,246,0.0,0.0,43,0.00,,,0.01,vanprod-2.5-rc3,2013-10-12 21:51:00,
2013-10-12 15:56:00,57.3,35.6,30.00,SSW,199,0.0,0.0,44,0.00,,,0.01,vanprod-2.5-rc3,2013-10-12 21:56:00,
2013-10-12 16:01:00,57.8,36.0,30.00,South,190,0.0,0.0,44,0.00,,,0.01,vanprod-2.5-rc3,2013-10-12 22:01:00,
2013-10-12 16:06:00,58.6,36.8,29.99,South,172,0.0,0.0,44,0.00,,,0.01,vanprod-2.5-rc3,2013-10-12 22:06:00,
2013-10-12 16:11:00,59.0,36.0,29.99,South,188,0.0,0.0,42,0.00,,,0.01,vanprod-2.5-rc3,2013-10-12 22:11:00,
2013-10-12 16:16:00,59.0,35.4,29.99,South,188,0.0,0.0,41,0.00,,,0.01,vanprod-2.5-rc3,2013-10-12 22:16:00,
2013-10-12 16:21:00,58.6,34.4,29.99,South,189,0.0,0.0,40,0.00,,,0.01,vanprod-2.5-rc3,2013-10-12 22:21:00,
2013-10-12 16:26:00,58.4,34.8,30.00,South,189,0.0,0.0,41,0.00,,,0.01,vanprod-2.5-rc3,2013-10-12 22:26:00,
2013-10-12 16:31:00,58.5,34.9,29.99,South,185,0.0,0.0,41,0.00,,,0.01,vanprod-2.5-rc3,2013-10-12 22:31:00,
2013-10-12 16:36:00,58.9,34.6,29.99,South,180,0.0,0.0,40,0.00,,,0.01,vanprod-2.5-rc3,2013-10-12 22:36:00,
2013-10-12 16:41:00,59.0,35.4,29.99,South,180,0.0,0.0,41,0.00,,,0.01,vanprod-2.5-rc3,2013-10-12 22:41:00,
2013-10-12 16:46:00,59.0,34.7,29.99,South,190,0.0,0.0,40,0.00,,,0.01,vanprod-2.5-rc3,2013-10-12 22:46:00,
2013-10-12 16:51:00,59.0,32.1,29.99,South,190,0.0,0.0,36,0.00,,,0.01,vanprod-2.5-rc3,2013-10-12 22:51:00,
2013-10-12 16:56:00,58.4,32.9,29.99,South,191,0.0,0.0,38,0.00,,,0.01,vanprod-2.5-rc3,2013-10-12 22:56:00,
2013-10-12 17:01:00,58.0,34.5,29.99,South,191,0.0,0.0,41,0.00,,,0.01,vanprod-2.5-rc3,2013-10-12 23:01:00,
2013-10-12 17:06:00,57.8,35.5,30.00,South,191,0.0,0.0,43,0.00,,,0.01,vanprod-2.5-rc3,2013-10-12 23:06:00,
2013-10-12 17:11:00,57.5,34.0,29.99,South,190,0.0,0.0,41,0.00,,,0.01,vanprod-2.5-rc3,2013-10-12 23:11:00,
2013-10-12 17:16:00,57.3,35.0,29.99,South,190,0.0,0.0,43,0.00,,,0.01,vanprod-2.5-rc3,2013-10-12 23:16:00,
2013-10-12 17:21:00,56.9,36.9,29.99,SSE,153,2.0,2.0,47,0.00,,,0.01,vanprod-2.5-rc3,2013-10-12 23:21:00,
2013-10-12 17:26:00,56.5,36.0,29.99,SE,136,0.0,0.0,46,0.00,,,0.01,vanprod-2.5-rc3,2013-10-12 23:26:00,
2013-10-12 17:31:00,55.9,36.0,29.98,SE,136,0.0,0.0,47,0.00,,,0.01,vanprod-2.5-rc3,2013-10-12 23:31:00,
2013-10-12 17:36:00,55.4,36.1,29.98,SE,136,0.0,0.0,48,0.00,,,0.01,vanprod-2.5-rc3,2013-10-12 23:36:00,
2013-10-12 17:41:00,54.9,36.1,29.98,SE,136,0.0,0.0,49,0.00,,,0.01,vanprod-2.5-rc3,2013-10-12 23:41:00,
2013-10-12 17:46:00,54.4,36.2,29.99,SE,136,0.0,0.0,50,0.00,,,0.01,vanprod-2.5-rc3,2013-10-12 23:46:00,
2013-10-12 17:51:00,54.1,36.4,29.99,SE,135,0.0,0.0,51,0.00,,,0.01,vanprod-2.5-rc3,2013-10-12 23:51:00,
2013-10-12 17:56:00,53.9,35.7,29.99,SE,134,0.0,0.0,50,0.00,,,0.01,vanprod-2.5-rc3,2013-10-12 23:56:00,
2013-10-12 18:01:00,53.9,35.7,29.99,SE,138,0.0,0.0,50,0.00,,,0.01,vanprod-2.5-rc3,2013-10-13 00:01:00,
2013-10-12 18:06:00,53.9,35.2,29.99,SSE,148,0.0,0.0,49,0.00,,,0.01,vanprod-2.5-rc3,2013-10-13 00:06:00,
2013-10-12 18:11:00,53.7,35.5,30.00,SE,141,0.0,0.0,50,0.00,,,0.01,vanprod-2.5-rc3,2013-10-13 00:11:00,
2013-10-12 18:16:00,53.4,34.7,29.99,ESE,111,0.0,2.0,49,0.00,,,0.01,vanprod-2.5-rc3,2013-10-13 00:16:00,
2013-10-12 18:21:00,53.1,35.0,30.00,ESE,112,0.0,0.0,50,0.00,,,0.01,vanprod-2.5-rc3,2013-10-13 00:21:00,
2013-10-12 18:26:00,52.8,34.7,30.00,ESE,112,2.0,2.0,50,0.00,,,0.01,vanprod-2.5-rc3,2013-10-13 00:26:00,
2013-10-12 18:31:00,52.2,34.6,29.99,ESE,113,2.0,2.0,51,0.00,,,0.01,vanprod-2.5-rc3,2013-10-13 00:31:00,
2013-10-12 18:36:00,51.6,34.1,29.98,ESE,121,2.0,2.0,51,0.00,,,0.01,vanprod-2.5-rc3,2013-10-13 00:36:00,
2013-10-12 18:41:00,51.0,34.0,29.98,ESE,121,0.0,0.0,52,0.00,,,0.01,vanprod-2.5-rc3,2013-10-13 00:41:00,
2013-10-12 18:46:00,50.4,33.5,29.99,ESE,120,1.0,0.0,52,0.00,,,0.01,vanprod-2.5-rc3,2013-10-13 00:46:00,
2013-10-12 18:51:00,49.8,33.4,30.00,SE,129,2.0,2.0,53,0.00,,,0.01,vanprod-2.5-rc3,2013-10-13 00:51:00,
2013-10-12 18:56:00,49.4,33.5,30.00,SE,127,0.0,0.0,54,0.00,,,0.01,vanprod-2.5-rc3,2013-10-13 00:56:00,
2013-10-12 19:01:00,49.1,33.2,29.99,ESE,119,0.0,0.0,54,0.00,,,0.01,vanprod-2.5-rc3,2013-10-13 01:01:00,
2013-10-12 19:06:00,48.8,33.4,29.99,ESE,119,0.0,0.0,55,0.00,,,0.01,vanprod-2.5-rc3,2013-10-13 01:06:00,
2013-10-12 19:11:00,48.5,33.1,29.99,ESE,119,0.0,0.0,55,0.00,,,0.01,vanprod-2.5-rc3,2013-10-13 01:11:00,
2013-10-12 19:16:00,48.1,33.2,30.00,ESE,119,0.0,0.0,56,0.00,,,0.01,vanprod-2.5-rc3,2013-10-13 01:16:00,
2013-10-12 19:21:00,47.7,32.3,30.01,ESE,119,0.0,0.0,55,0.00,,,0.01,vanprod-2.5-rc3,2013-10-13 01:21:00,
2013-10-12 19:26:00,47.5,31.7,29.99,ESE,119,0.0,0.0,54,0.00,,,0.01,vanprod-2.5-rc3,2013-10-13 01:26:00,
2013-10-12 19:31:00,47.0,32.6,30.01,ESE,120,0.0,0.0,57,0.00,,,0.01,vanprod-2.5-rc3,2013-10-13 01:31:00,
2013-10-12 19:36:00,46.5,32.1,30.01,ESE,119,0.0,0.0,57,0.00,,,0.01,vanprod-2.5-rc3,2013-10-13 01:36:00,
2013-10-12 19:41:00,45.9,32.4,29.99,ESE,120,0.0,0.0,59,0.00,,,0.01,vanprod-2.5-rc3,2013-10-13 01:41:00,
2013-10-12 19:46:00,45.3,31.8,29.99,ESE,120,0.0,0.0,59,0.00,,,0.01,vanprod-2.5-rc3,2013-10-13 01:46:00,
2013-10-12 19:51:00,44.9,32.7,29.99,ESE,120,0.0,0.0,62,0.00,,,0.01,vanprod-2.5-rc3,2013-10-13 01:51:00,
2013-10-12 19:56:00,44.5,31.9,29.99,ESE,123,0.0,0.0,61,0.00,,,0.01,vanprod-2.5-rc3,2013-10-13 01:56:00,
2013-10-12 19:57:00,44.4,31.8,30.01,ESE,123,0.0,0.0,61,0.00,,,0.01,vanprod-2.5-rc3,2013-10-13 01:57:00,
2013-10-12 20:02:00,44.4,32.2,30.01,SE,128,0.0,0.0,62,0.00,,,0.01,vanprod-2.5-rc3,2013-10-13 02:02:00,
2013-10-12 20:07:00,44.5,31.5,29.99,SE,129,0.0,0.0,60,0.00,,,0.01,vanprod-2.5-rc3,2013-10-13 02:07:00,
2013-10-12 20:12:00,44.5,31.9,29.99,SE,129,0.0,0.0,61,0.00,,,0.01,vanprod-2.5-rc3,2013-10-13 02:12:00,
2013-10-12 20:17:00,44.3,32.1,30.01,SE,128,0.0,0.0,62,0.00,,,0.01,vanprod-2.5-rc3,2013-10-13 02:17:00,
2013-10-12 20:22:00,43.6,32.2,30.01,East,82,0.0,0.0,64,0.00,,,0.01,vanprod-2.5-rc3,2013-10-13 02:22:00,
2013-10-12 20:27:00,43.0,32.4,30.00,East,79,0.0,0.0,66,0.00,,,0.01,vanprod-2.5-rc3,2013-10-13 02:27:00,
2013-10-12 20:32:00,42.4,32.2,30.00,East,98,0.0,0.0,67,0.00,,,0.01,vanprod-2.5-rc3,2013-10-13 02:32:00,
2013-10-12 20:37:00,42.4,32.2,30.00,East,98,3.0,4.0,67,0.00,,,0.01,vanprod-2.5-rc3,2013-10-13 02:37:00,
2013-10-12 20:42:00,42.8,32.2,30.00,ESE,103,2.0,3.0,66,0.00,,,0.01,vanprod-2.5-rc3,2013-10-13 02:42:00,
2013-10-12 20:47:00,43.3,32.3,30.00,ESE,123,1.0,4.0,65,0.00,,,0.01,vanprod-2.5-rc3,2013-10-13 02:47:00,
2013-10-12 20:52:00,43.8,32.4,30.02,ESE,109,0.0,0.0,64,0.00,,,0.01,vanprod-2.5-rc3,2013-10-13 02:52:00,
2013-10-12 20:57:00,44.2,33.2,30.02,ESE,105,3.0,5.0,65,0.00,,,0.01,vanprod-2.5-rc3,2013-10-13 02:57:00,
2013-10-12 21:02:00,44.4,33.0,30.02,ESE,104,0.0,0.0,64,0.00,,,0.01,vanprod-2.5-rc3,2013-10-13 03:02:00,
2013-10-12 21:07:00,44.3,33.3,30.02,East,83,3.0,5.0,65,0.00,,,0.01,vanprod-2.5-rc3,2013-10-13 03:07:00,
2013-10-12 21:12:00,44.3,33.7,30.02,ENE,72,2.0,7.0,66,0.00,,,0.01,vanprod-2.5-rc3,2013-10-13 03:12:00,
2013-10-12 21:17:00,44.1,33.9,30.02,East,84,6.0,10.0,67,0.00,,,0.01,vanprod-2.5-rc3,2013-10-13 03:17:00,
2013-10-12 21:22:00,44.0,34.1,30.02,ENE,73,5.0,6.0,68,0.00,,,0.01,vanprod-2.5-rc3,2013-10-13 03:22:00,
2013-10-12 21:27:00,43.8,33.6,30.02,East,80,5.0,7.0,67,0.00,,,0.01,vanprod-2.5-rc3,2013-10-13 03:27:00,
2013-10-12 21:32:00,43.6,33.8,30.02,East,93,5.0,9.0,68,0.00,,,0.01,vanprod-2.5-rc3,2013-10-13 03:32:00,
2013-10-12 21:37:00,43.4,33.9,30.01,East,85,6.0,8.0,69,0.00,,,0.01,vanprod-2.5-rc3,2013-10-13 03:37:00,
2013-10-12 21:42:00,43.3,33.5,30.01,ENE,70,7.0,9.0,68,0.00,,,0.01,vanprod-2.5-rc3,2013-10-13 03:42:00,
2013-10-12 21:47:00,43.1,33.3,30.02,ENE,65,7.0,9.0,68,0.00,,,0.01,vanprod-2.5-rc3,2013-10-13 03:47:00,
2013-10-12 21:52:00,42.7,33.3,30.01,ENE,62,9.0,11.0,69,0.00,,,0.01,vanprod-2.5-rc3,2013-10-13 03:52:00,
2013-10-12 21:57:00,42.5,33.4,30.01,ENE,69,6.0,6.0,70,0.00,,,0.01,vanprod-2.5-rc3,2013-10-13 03:57:00,
2013-10-12 22:01:00,42.4,33.3,30.01,ENE,65,5.0,5.0,70,0.00,,,0.01,vanprod-2.5-rc3,2013-10-13 04:01:00,
2013-10-12 22:02:00,42.4,33.0,30.02,ENE,64,4.0,7.0,69,0.00,,,0.01,vanprod-2.5-rc3,2013-10-13 04:02:00,
2013-10-12 22:07:00,42.3,33.2,30.02,ENE,68,6.0,9.0,70,0.00,,,0.01,vanprod-2.5-rc3,2013-10-13 04:07:00,
2013-10-12 22:12:00,42.3,33.2,30.02,ESE,110,4.0,6.0,70,0.00,,,0.01,vanprod-2.5-rc3,2013-10-13 04:12:00,
2013-10-12 22:17:00,42.3,33.2,30.02,SE,127,4.0,5.0,70,0.00,,,0.01,vanprod-2.5-rc3,2013-10-13 04:17:00,
2013-10-12 22:22:00,42.3,32.9,30.02,ESE,102,0.0,0.0,69,0.00,,,0.01,vanprod-2.5-rc3,2013-10-13 04:22:00,
2013-10-12 22:27:00,42.1,32.7,30.02,ENE,74,0.0,0.0,69,0.00,,,0.01,vanprod-2.5-rc3,2013-10-13 04:27:00,
2013-10-12 22:32:00,41.7,32.3,30.02,ENE,74,0.0,0.0,69,0.00,,,0.01,vanprod-2.5-rc3,2013-10-13 04:32:00,
2013-10-12 22:37:00,41.4,32.4,30.03,East,97,0.0,0.0,70,0.00,,,0.01,vanprod-2.5-rc3,2013-10-13 04:37:00,
2013-10-12 22:42:00,41.2,32.5,30.03,ENE,78,4.0,5.0,71,0.00,,,0.01,vanprod-2.5-rc3,2013-10-13 04:42:00,
2013-10-12 22:47:00,40.9,32.2,30.03,ENE,77,5.0,6.0,71,0.00,,,0.01,vanprod-2.5-rc3,2013-10-13 04:47:00,
2013-10-12 22:52:00,40.7,32.4,30.03,ENE,75,4.0,5.0,72,0.00,,,0.01,vanprod-2.5-rc3,2013-10-13 04:52:00,
2013-10-12 22:57:00,40.5,32.2,30.03,East,84,3.0,4.0,72,0.00,,,0.01,vanprod-2.5-rc3,2013-10-13 04:57:00,
2013-10-12 23:02:00,40.4,32.4,30.03,East,85,3.0,3.0,73,0.00,,,0.01,vanprod-2.5-rc3,2013-10-13 05:02:00,
2013-10-12 23:07:00,40.1,32.5,30.02,East,87,0.0,0.0,74,0.00,,,0.01,vanprod-2.5-rc3,2013-10-13 05:07:00,
2013-10-12 23:12:00,39.8,32.2,30.03,ESE,121,0.0,3.0,74,0.00,,,0.01,vanprod-2.5-rc3,2013-10-13 05:12:00,
2013-10-12 23:17:00,40.0,32.4,30.02,ENE,58,5.0,6.0,74,0.00,,,0.01,vanprod-2.5-rc3,2013-10-13 05:17:00,
2013-10-12 23:22:00,40.2,32.3,30.03,ESE,109,0.0,0.0,73,0.00,,,0.01,vanprod-2.5-rc3,2013-10-13 05:22:00,
2013-10-12 23:27:00,40.2,32.3,30.03,East,80,3.0,4.0,73,0.00,,,0.01,vanprod-2.5-rc3,2013-10-13 05:27:00,
2013-10-12 23:32:00,40.2,32.3,30.03,East,93,0.0,0.0,73,0.00,,,0.01,vanprod-2.5-rc3,2013-10-13 05:32:00,
2013-10-12 23:37:00,40.1,32.2,30.03,ENE,70,3.0,6.0,73,0.00,,,0.01,vanprod-2.5-rc3,2013-10-13 05:37:00,
2013-10-12 23:42:00,40.0,32.1,30.03,ENE,64,4.0,6.0,73,0.00,,,0.01,vanprod-2.5-rc3,2013-10-13 05:42:00,
2013-10-12 23:47:00,40.3,32.3,30.03,ENE,65,6.0,7.0,73,0.00,,,0.01,vanprod-2.5-rc3,2013-10-13 05:47:00,
2013-10-12 23:52:00,40.4,32.4,30.03,East,80,4.0,6.0,73,0.00,,,0.01,vanprod-2.5-rc3,2013-10-13 05:52:00,
2013-10-12 23:57:00,40.3,32.3,30.03,East,82,4.0,4.0,73,0.00,,,0.01,vanprod-2.5-rc3,2013-10-13 05:57:00,